Погода в Рыбинске

Погода в Рыбинске : погода сейчас, прогноз погоды и архив. Всё, что Вы хотите узнать о погоде в Рыбинске!

Хотите узнать прогноз погоды в Рыбинске? Тогда Вам сюда: Погода в Рыбинске

Поиск расширенной информации на нашем сайте:

Полезная информация:

Другие новости

Новости СМИ2

Главная страница сайта

Новости сайта

03.07.2017

Напоминаем, что на нашем специализированном сайте Метеоцентр.Азия вы можете получить высокодетализированные автоматические прогнозы погоды по пунктам России, СНГ и мира в авиационном формате (включающие направление и скорость ветра, видимость, явления погоды, количество и форму облачности, нижнюю и верхнюю границу облачности).

Рекомендуем:

Погода в Рыбинске - сегодня

Время (UTC), дата Ветер
(°,м/с) 
Видим.   Явления Облачность Т
(°С)
Тd
(°С)
f(%) Тe
(°С)
Pmin
(гПа)
dP
(гПа)
Po
(мм)
O2
(г/м3)
Тmin Tmax R s Состояние
почвы
12 15.07.19 330 (СЗ) 10 км  в посл. час гроза{ливн. осадки}  8/8 300 м кучево-дожд. 
[Cb cap]
+16.6 +12.1 75 +22  1011.2  0.3  749  282           
15 15.07.19 тихо ()   10 км    8/0 верхняя 
[Ci ing]
+17.1 +12.1 72 +21  1011  -0.3  749  282    +19.1  11     
18 15.07.19 270 (З) 10 км    6/6 600 м 
[Cu med, cong]
+15.3 +12.3 82 +21  1011.2  0.2  749  283           
21 15.07.19 200 (Ю) 10 км    4/4 300 м 
[Sc]
+12.2 +10.9 92 +15  1011.3  749  287           
00 16.07.19 тихо ()   10 км    3/3 300 м 
[Sc]
+10.2 +9.1 93 +10  1011.9  0.5  749  289           
03 16.07.19 200 (Ю) 10 км  дымка  4/0 верхняя 
[Ci fib]
+12 +10.9 93 +15  1012.2  0.4  750  287  +9.3        мокрая 
06 16.07.19 070 (В) 10 км    6/6 300 м 
[Cu med, cong]
+18.1 +12.5 70 +25  1012.2  0.3  750  281           
09 16.07.19 060 (СВ) 10 км    6/6 300 м 
[Cu med, cong]
+21.4 +11.1 52 +24  1011.8  -0.3  750  278           
12 16.07.19 010 (С) 10 км    8/8 300 м 
[Cu med, cong]
+22.6 +11.2 48 +25  1011.2  -0.5  749  277           
15 16.07.19 тихо ()   10 км    10/10 300 м 
[Sc]
+19.5 +13 66 +25  1010.8  -0.6  749  279    +22.6       
18 16.07.19 100 (В) 10 км  в посл. час ливневой дождь  10/10 300 м 
[Sc]
+17.7 +13 74 +24  1011  0.2  749  281           
21 16.07.19 120 (ЮВ) 4000 м  слаб. ливневой дождь  10/10 300 м кучево-дожд. 
[Cb cap]
+15.3 +13.3 88 +23  1011.2  0.1  749  283           
00 17.07.19 120 (ЮВ) 4000 м  слаб. ливневой дождь  10/10 300 м кучево-дожд. 
[Cb cap]
+14.3 +13.1 92 +21  1010.7  -0.6  749  284           
03 17.07.19 100 (В) 10 км  {ливн. осадки}  10/10 300 м 
[Sc]
+14.8 +13.5 92 +21  1010.2  -0.4  748  283  +14.2    10    мокрая 
06 17.07.19 100 (В) 10 км  {ливн. осадки}  10/10 300 м 
[Sc]
+16.5 +14.3 87 +25  1010.1  748  281           
09 17.07.19 080 (В) 10 км  {ливн. осадки}  8/8 300 м 
[Cu med, cong]
+20.8 +16 74 +31  1009.7  -0.3  748  277           
12 17.07.19 090 (В) 10 км  гроза, ливневой дождь  6/6 300 м кучево-дожд. 
[Cb calv]
+23.5 +15 59 +32  1008.1  -1.5  747  274           
15 17.07.19 130 (ЮВ) 2{19}  4000 м  слаб. ливневой дождь, в посл. час гроза  10/10 300 м кучево-дожд. 
[Cb cap]
+15 +13.4 90 +22  1009.3  0.8  748  283    +23.7     
18 17.07.19 100 (В) 10 км  в посл. час ливневой дождь{гроза}  10/10 300 м кучево-дожд. 
[Cb cap]
+15.8 +13.8 88 +24  1009.1  -0.1  748  282           
21 17.07.19 110 (В) 10 км  {ливн. осадки}  10/10 300 м кучево-дожд. 
[Cb cap]
+15.9 +14.3 90 +25  1007.8  -1.3  747  281           
00 18.07.19 080 (В) 4000 м  слаб. ливневой дождь  10/10 300 м кучево-дожд. 
[Cb cap]
+15.8 +14.5 92 +24  1005.8  -2  745  281           
03 18.07.19 100 (В) 4000 м  ливневой дождь  10/10 300 м кучево-дожд. 
[Cb cap]
+15.7 +14.6 93 +24  1004.2  -1.6  744  280  +15    12    мокрая 
06 18.07.19 110 (В) 4000 м  слаб. ливневой дождь  10/10 300 м кучево-дожд. 
[Cb cap]
+16.4 +15.4 94 +27  1003.8  -0.3  744  279           
09 18.07.19 110 (В) 10 км  {ливн. осадки}  10/10 300 м 
[Cu med, cong]
+19.8 +16.2 80 +32  1003.6  -0.1  744  276           
12 18.07.19 120 (ЮВ) 10 км  в посл. час гроза{ливн. осадки}  10/10 300 м 
[Cu med, cong]
+18.8 +16.2 85 +31  1004.4  0.8  744  277           
Время (UTC), дата Ветер
(°,м/с) 
Видим.   Явления Облачность Т
(°С)
Тd
(°С)
f(%) Тe
(°С)
Pmin
(гПа)
dP
(гПа)
Po
(мм)
O2
(г/м3)
Тmin Tmax R s Состояние
почвы

Для получения пояснительной информации подведите курсор к названию столбца.

ПОГОДА в Рыбинске - архив

Всё, что Вы хотите узнать о погоде в Рыбинске - удобно и подробно!

Выберите нужную дату (начиная с 1 января 2018* года) и нажмите кнопку "Найти".
Будут отображены архивные сводки погоды по пункту Рыбинск, начиная с указанной даты.


Отображать данные в формате CSV (для использования в таблицах Excel)


Внимание! Наш архив погоды предназначен исключительно для личного некоммерческого использования в познавательных целях. Если Вам необходимы официальные справки о состоянии погоды (для производственных, юридических, коммерческих и т.п. целей), обращайтесь в органы Росгидромета.

*Примечание: данная дата относится к архиву по метеостанциям СССР (Россия, СНГ, Балтия).
Архив по метеостанциям Зарубежной Европы и Азии (кроме Китая) хранится 10 дней, по другим регионам земного шара (Китай, Африка, Америка, Австралия, Океания) - 1 день.

Рыбинск - район местоположения метеостанции


Название, широта, долгота, высота метеостанции:
Рыбинск 58.1°ш. 38.7°д. 105 м над ур. моря [Российская Федерация]

Дополнительная информация

В oтличие oт бoльшинства пoгoдных сайтoв мы публикуем пoдрoбную метеoинфoрмацию в детальнoм прoфессиoнальнoм фoрмате.

Характеристики температуры и влажнoсти вoздуха измеряются на высoте 2 м в тени вдали oт зданий и деревьев.
Скoрoсть ветра измеряется на высoте 10 м (на урoвне рoста челoвека скoрoсть ветра ниже в 1.5-2 раза). Если метеoстанция нахoдится в гoрoде или в лесу, тo скoрoсть ветра занижена на 2-4 м/с пo сравнению с oткрытым местoм. Скoрoсть ветра над акватoриями крупных рек и oзёр, а также на вершинах хoлмoв на 2-5 м/с выше, чем в oбычных услoвиях.
Атмoсфернoе давление в разных тoчках местнoсти мoжет значительнo oтличаться oт давления на метеoстанции, в зависимoсти oт услoвий рельефа (при пoдъёме на 10 м давление пoнижается примернo на 1 мм рт.ст.).